Regional Weather Roundup
Issued by NWS

Home | Current Version | Previous Version | Text Only | Print | Product List | Glossary Off
Versions: 1 2 3 4 5 6 7 8 9 10 11 12 13 14 15 16 17 18 19 20 21 22 23 24 25 26 27 28 29 30 31 32 33 34 35 36 37 38 39 40 41 42 43 44 45 46 47 48 49 50

000
ASUS43 KLSX 251059
RWRMO

WEATHER SUMMARY FOR MISSOURI
NATIONAL WEATHER SERVICE SPRINGFIELD MO
600 AM CDT TUE JUL 25 2017

NOTE: "FAIR" INDICATES FEW OR NO CLOUDS BELOW 12,000 FEET WITH NO
       SIGNIFICANT WEATHER AND/OR OBSTRUCTIONS TO VISIBILITY.
       CURRENT SKY AND/OR WEATHER CONDITIONS ARE NOT AVAILABLE FOR
       CHILLICOTHE AND FARMINGTON.

MOZ001>031-035>038-043-044-053-054-251200-
...NORTHERN AND WESTERN MISSOURI...

CITY           SKY/WX    TMP DP  RH WIND       PRES   REMARKS
KANSAS CTY INT PTCLDY    71  66  84 SE8       30.06R
KANSAS C DTWN  CLEAR     75  67  76 E5        30.04S
LEE`S SUMMIT   CLEAR     72  67  84 SE6       30.06S
ST JOSEPH      PTCLDY    72  68  87 SE7       30.05R
CHILLICOTHE      N/A     69  68  96 CALM      30.09R
KIRKSVILLE     PTCLDY    64  63  96 E5        30.11R FOG

$$
MOZ066>068-077>081-088>096-101>105-251200-
...SOUTHWEST MISSOURI...

CITY           SKY/WX    TMP DP  RH WIND       PRES   REMARKS
SPRINGFIELD    CLEAR     72  68  87 S6        30.07R
JOPLIN         CLEAR     75  72  90 CALM      30.06R

$$
MOZ032>034-039>042-045>050-055>058-069>072-251200-
...CENTRAL MISSOURI...

CITY           SKY/WX    TMP DP  RH WIND       PRES   REMARKS
COLUMBIA       CLEAR     68  67  96 E8        30.08R
JEFFERSON CITY CLEAR     69  69 100 CALM      30.07R
ROLLA          CLEAR     69  68  96 E8        30.07R
SEDALIA        CLEAR     69  67  93 E3        30.08R
WARRENSBURG    CLEAR     66  64  94 NE5       30.06R
OSAGE BEACH    PTCLDY    67  65  93 NE5       30.08R

$$
MOZ051-052-059>065-251200-
...EAST CENTRAL MISSOURI...

CITY           SKY/WX    TMP DP  RH WIND       PRES   REMARKS
ST LOUIS INTL  PTCLDY    73  66  78 E8        30.09R
SPIRIT OF STL  PTCLDY    70  68  93 E6        30.07R
ST CHARLES     PTCLDY    69  67  93 E7        30.08R

$$
MOZ072>076-082>087-097>100-106>115-251200-
...SOUTH CENTRAL AND SOUTHEAST MISSOURI...

CITY           SKY/WX    TMP DP  RH WIND       PRES   REMARKS
CAPE GIRARDEAU CLOUDY    73  69  87 CALM      30.05R
FARMINGTON     PTCLDY    72  69  90 NE5       30.08R
POPLAR BLUFF   PTCLDY    77  77 100 E3        30.04R FOG
WEST PLAINS    CLEAR     71  69  93 N3        30.08R

$$




USA.gov is the U.S. government's official web portal to all federal, state and local government web resources and services.